EHI
0 0 0 0 0 0 0 0 0 0 0 0 0 0 0 0 0 0 0 0 0 0 0 0 0 0 0 0 0 0 0 0 0 0 0 0 0 0
0 0 0 0 0 0 0 0 0 0 0 0 0 0 0 0 0 0 0 0 0 0 0 0 0 0 0 0 0 0 0 0 0 0 0 0 0 0
0 0 0 0 0 0 0 0 0 0 0 0 0 0 0 0 0 0 0 0 0 0 0 0 0 0 0 0 0 0 0 0 0 0 0 0 0 0
0 0 0 0 0 0 0 0 0 0 0 0 0 0 0 0 0 0 0 0 0 0 0 0 0 0 0 0 0 0 0 0 0 0 0 0 0 0
0 0 0 0 0 0 0 0 0 0 0 0 0 0 0 0 0 0 0 0 0 0 0 0 0 0 0 0 0 0 0 0 0 0 0 0 0 0
1 1 0 0 0 0 0 0 0 0 0 0 0 0 0 0 0 0 0 0 0 0 0 0 0 0 0 0 0 0 0 0 0 0 0 0 0 0
2 2 1 0 0 0 0 0 0 0 0 0 0 0 0 0 0 0 0 0 0 0 0 0 0 0 0 0 0 0 0 0 0 0 0 0 0 0
3 3 2 0 0 0 0 0 0 0 0 0 0 0 0 0 0 0 0 0 0 0 0 0 0 0 0 0 0 0 0 0 0 0 0 0 0 0
3 3 2 1 0 0 0 0 0 0 0 0 0 0 0 0 0 0 0 0 0 0 0 0 0 0 0 0 0 0 0 0 0 0 0 0 0 0
3 3 3 2 1 0 0 0 0 0 0 0 0 0 0 0 0 0 0 0 0 0 0 0 0 0 0 0 0 0 0 0 0 0 0 0 0 0
3 3 3 2 1 0 0 0 0 0 0 0 0 0 0 0 0 0 0 0 0 0 0 0 0 0 0 0 0 0 0 0 0 0 0 0 0 0
3 3 2 1 0 0 0 0 0 0 0 0 0 0 0 0 0 0 0 0 0 0 0 0 0 0 0 0 0 0 0 0 0 0 0 0 0 0
3 3 2 1 0 0 0 0 0 0 0 0 0 0 0 0 0 0 0 0 0 0 0 0 0 0 0 0 0 0 0 0 0 0 0 0 0 0
1 2 2 1 0 0 0 0 0 0 0 0 0 0 0 0 0 1 1 0 0 0 0 0 0 0 0 0 0 0 0 0 0 0 0 0 0 0
0 1 1 0 0 0 0 0 0 0 0 0 0 0 0 0 0 1 1 0 0 0 0 0 0 0 0 0 0 0 0 0 0 0 0 0 0 0
0 0 0 0 0 0 0 0 0 0 0 0 0 0 0 0 0 1 1 0 0 0 0 0 0 0 0 0 0 0 0 0 0 0 0 0 0 0
0 0 0 0 0 0 0 0 0 0 0 0 0 0 0 0 0 0 0 0 0 0 0 0 0 0 0 0 0 0 0 0 0 0 0 0 0 0
0 0 0 0 0 0 0 0 0 0 0 0 0 0 0 0 0 0 0 0 0 0 0 0 0 0 0 0 0 0 0 0 0 0 0 0 0 0
0 0 0 0 0 0 0 0 0 0 0 0 0 0 0 0 0 0 0 0 0 0 0 0 0 0 0 0 0 0 0 0 0 0 0 0 0 0
0 0 0 0 0 0 0 0 0 0 0 0 0 0 0 0 0 0 0 0 0 0 0 0 0 0 0 0 0 0 0 0 0 0 0 0 0 0
0 0 0 0 0 0 0 0 0 0 0 0 0 0 0 0 0 0 0 0 0 0 0 0 0 0 0 0 0 0 0 0 0 0 0 0 0 0
1 0 0 0 0 0 0 0 0 0 0 0 0 0 0 0 0 0 0 0 0 0 0 0 0 0 0 0 0 0 0 0 0 0 0 0 0 0
1 1 0 0 0 0 0 0 0 0 0 0 0 0 0 0 0 0 0 0 0 0 0 0 0 0 0 0 0 0 0 0 0 0 0 0 0 0
Wind_Speed
5 6 5 4 4 4 4 4 4 6 6 5 3 2 2 2 3 3 4 6 9 11 12 13 14 16 18 19 20 21 21 20 20 20 20 20 20 20
5 6 5 5 5 4 4 4 4 5 6 5 4 4 3 3 3 3 4 6 9 12 13 13 15 16 17 18 19 19 20 20 20 20 20 19 19 19
7 7 7 6 5 5 5 4 4 5 6 5 4 4 4 4 3 3 4 5 5 11 13 14 15 16 16 17 18 19 20 20 20 20 20 20 19 19
7 7 7 7 6 6 5 6 5 5 6 7 5 5 6 6 5 5 5 6 5 9 12 14 15 16 16 17 18 18 19 20 20 20 20 20 20 19
7 7 7 7 7 6 6 6 5 7 5 6 6 5 5 5 5 5 6 4 6 7 10 12 14 15 16 17 17 18 19 19 20 20 20 19 19 19
7 7 7 8 8 7 7 6 6 6 6 6 6 5 5 6 5 4 4 4 5 6 6 7 10 13 15 16 17 18 18 19 19 19 19 19 19 19
7 7 8 10 10 8 8 6 6 5 5 6 6 5 5 4 4 3 4 3 4 4 4 4 5 6 8 12 16 18 18 18 19 19 19 18 18 18
8 8 9 10 12 14 15 13 11 8 7 6 6 6 6 5 4 4 3 3 3 2 3 4 3 4 5 6 11 15 17 18 18 19 18 18 18 18
8 8 10 11 9 6 9 14 14 16 14 9 9 9 8 6 5 5 5 4 4 3 2 3 2 3 2 3 9 13 15 17 17 18 18 18 17 17
9 9 9 9 11 8 7 7 7 9 11 11 11 11 10 7 6 6 6 6 5 4 4 3 2 2 1 1 4 10 13 15 16 16 17 16 16 16
9 10 9 9 10 9 7 7 7 7 11 14 14 14 15 13 7 4 5 5 6 5 3 3 2 1 1 1 1 5 10 13 14 15 15 15 15 14
7 7 10 9 7 6 6 7 8 7 8 8 8 10 11 12 13 9 7 7 6 5 4 4 3 3 1 1 1 2 4 8 12 13 14 15 16 10
7 6 4 4 5 7 7 7 8 8 7 7 7 7 7 7 8 9 9 9 8 6 3 3 3 3 3 2 1 1 2 3 5 7 12 15 16 12
7 7 4 3 5 7 7 9 11 8 7 7 7 7 7 7 7 8 9 11 9 8 6 4 3 4 4 3 2 2 2 3 4 5 6 10 10 9
7 9 10 10 10 9 14 15 11 8 8 8 9 8 7 6 6 6 7 8 8 9 9 8 6 5 4 4 4 4 3 2 4 6 7 7 7 7
8 9 12 14 13 12 11 9 8 9 9 8 8 7 6 5 6 5 5 5 6 6 7 8 8 7 5 4 5 5 4 5 5 6 6 6 6 7
4 6 8 8 7 7 7 7 7 7 9 9 8 7 6 6 5 5 5 5 6 6 6 5 5 5 5 5 5 6 6 5 6 7 7 6 6 6
4 7 8 8 8 7 6 6 7 7 7 7 7 7 6 6 6 5 5 6 6 6 6 5 5 4 2 1 3 7 6 6 6 7 7 7 7 6
6 8 9 9 8 7 6 6 7 6 6 6 7 7 6 6 6 6 6 6 6 6 6 6 7 7 7 6 3 4 6 7 7 7 7 5 6 7
8 9 9 8 7 6 6 6 6 5 5 6 6 7 6 6 6 6 6 7 6 6 5 6 7 8 8 7 5 4 7 8 8 8 6 4 4 6
7 7 7 7 6 5 5 6 6 5 6 5 6 7 6 7 7 7 6 8 7 6 7 7 7 9 4 4 5 4 4 5 6 7 8 7 6 5
8 7 6 6 5 5 5 5 6 5 5 6 6 6 6 6 7 8 7 6 6 7 7 6 7 7 6 7 7 7 6 4 5 9 7 4 6 8
5 5 6 6 5 5 5 6 7 5 5 5 5 5 6 6 6 6 7 7 6 7 6 6 7 6 6 6 6 7 9 8 5 5 4 9 4 3
Wind_Direction
268 267 257 266 270 266 265 265 272 282 285 286 278 258 241 219 192 211 230 232 229 226 226 227 223 218 213 210 209 209 208 208 208 209 209 209 210 212
254 259 264 265 270 274 271 264 259 265 275 283 283 274 274 271 211 224 242 242 236 231 228 225 222 219 216 212 209 208 207 206 206 205 206 206 206 209
263 262 256 254 258 268 273 271 265 260 268 275 275 280 279 272 259 244 255 241 238 233 230 227 223 220 217 214 211 208 207 206 207 206 206 205 205 207
264 263 264 263 253 252 260 267 269 269 268 273 275 273 269 264 249 236 245 248 242 235 229 226 222 219 216 214 212 210 208 206 206 206 205 205 205 207
269 266 263 262 262 253 252 258 266 269 266 266 270 264 261 260 260 250 246 241 251 247 231 225 220 218 215 213 212 210 208 206 204 204 204 205 206 208
271 268 265 260 258 256 256 251 255 263 269 269 267 264 261 255 249 241 248 234 240 244 239 221 216 216 216 212 211 209 207 205 203 202 204 205 206 207
285 278 272 266 257 253 257 254 260 261 266 267 267 266 262 260 261 253 252 249 239 231 232 221 211 213 212 215 213 210 206 204 203 202 203 203 204 205
282 279 279 272 259 245 242 243 244 251 259 265 271 271 275 284 288 285 278 269 264 236 225 238 217 217 211 209 207 204 203 202 202 201 201 201 201 201
274 276 278 279 284 267 246 241 242 243 241 247 260 265 271 280 297 298 291 284 275 274 256 255 236 230 225 230 207 199 198 198 199 198 197 197 197 197
266 265 265 268 273 272 272 262 249 245 238 236 241 250 255 260 264 272 275 279 270 253 226 239 235 236 235 239 206 196 194 192 193 193 193 191 191 191
268 269 267 264 262 254 255 260 262 260 258 249 235 236 239 244 245 261 267 265 267 258 221 211 207 208 219 251 219 195 194 191 189 189 188 184 180 177
275 273 272 268 261 240 247 258 263 265 272 277 260 250 246 243 234 230 240 249 255 258 224 197 192 173 187 215 180 171 182 187 185 182 178 172 166 166
284 287 288 279 251 240 246 257 263 274 279 274 268 256 246 240 234 225 220 227 236 242 224 192 193 184 172 166 168 171 169 166 170 171 170 167 169 169
275 281 286 278 258 254 252 255 260 266 264 263 260 254 244 239 235 228 221 219 221 230 228 212 207 195 172 166 173 166 162 160 159 157 159 161 164 167
264 278 287 277 268 260 251 250 252 250 249 251 253 253 247 241 238 234 230 225 222 224 223 217 212 203 195 179 163 162 157 162 163 157 157 163 162 159
257 273 271 262 253 255 261 247 233 236 240 246 251 253 250 245 239 231 230 221 221 225 221 211 204 201 206 195 168 172 170 166 167 161 154 157 162 167
321 287 278 272 260 250 245 243 236 230 234 239 246 249 249 246 241 230 227 223 219 217 211 200 197 198 204 190 178 178 169 164 166 160 156 158 166 171
275 271 273 273 270 266 260 256 246 239 237 234 235 241 244 243 240 232 226 224 222 217 209 193 173 164 165 200 189 175 172 167 163 166 162 158 167 175
243 259 264 267 268 267 265 262 257 246 237 237 236 237 239 239 236 232 225 221 220 218 206 190 182 185 193 194 190 191 171 162 160 168 172 161 165 171
238 252 261 266 267 266 266 264 260 252 241 234 234 235 232 234 234 231 224 218 217 215 208 196 193 195 199 185 166 176 180 167 166 168 165 135 108 103
265 265 265 269 270 268 268 265 259 250 243 236 235 233 229 228 230 230 224 220 215 209 209 204 199 188 175 149 145 150 153 160 165 164 157 148 143 145
267 275 277 275 276 272 266 264 263 254 246 239 236 232 228 226 228 228 224 217 211 209 209 198 180 177 178 181 172 158 146 125 98 101 89 94 159 169
272 279 282 281 276 272 266 263 265 263 254 244 238 232 228 226 225 225 222 216 208 205 200 190 181 181 186 185 170 158 154 149 143 129 73 22 41 107